Year,Month,Day,Hour,Minute,Value (Times are PST for temperature in C)
2015,07,06,00,00,19.10
2015,07,06,00,01,19.10
2015,07,06,00,02,19.00
2015,07,06,00,03,19.00
2015,07,06,00,04,19.00
2015,07,06,00,05,18.90
2015,07,06,00,06,18.90
2015,07,06,00,07,18.90
2015,07,06,00,08,18.80
2015,07,06,00,09,18.80
2015,07,06,00,10,18.80
2015,07,06,00,11,18.80
2015,07,06,00,12,18.70
2015,07,06,00,13,18.70
2015,07,06,00,14,18.70
2015,07,06,00,15,18.70
2015,07,06,00,16,18.70
2015,07,06,00,17,18.60
2015,07,06,00,18,18.60
2015,07,06,00,19,18.60
2015,07,06,00,20,18.50
2015,07,06,00,21,18.50
2015,07,06,00,22,18.40
2015,07,06,00,23,18.40
2015,07,06,00,24,18.40
2015,07,06,00,25,18.40
2015,07,06,00,26,18.30
2015,07,06,00,27,18.30
2015,07,06,00,28,18.30
2015,07,06,00,29,18.30
2015,07,06,00,30,18.20
2015,07,06,00,31,18.20
2015,07,06,00,32,18.20
2015,07,06,00,33,18.20
2015,07,06,00,34,18.20
2015,07,06,00,35,18.10
2015,07,06,00,36,18.10
2015,07,06,00,37,18.10
2015,07,06,00,38,18.10
2015,07,06,00,39,18.10
2015,07,06,00,40,18.10
2015,07,06,00,41,18.00
2015,07,06,00,42,18.00
2015,07,06,00,43,18.00
2015,07,06,00,44,18.00
2015,07,06,00,45,17.90
2015,07,06,00,46,17.90
2015,07,06,00,47,17.90
2015,07,06,00,48,17.80
2015,07,06,00,49,17.80
2015,07,06,00,50,17.80
2015,07,06,00,51,17.80
2015,07,06,00,52,17.80
2015,07,06,00,53,17.80
2015,07,06,00,54,17.70
2015,07,06,00,55,17.70
2015,07,06,00,56,17.70
2015,07,06,00,57,17.70
2015,07,06,00,58,17.60
2015,07,06,00,59,17.60
2015,07,06,01,00,17.60
2015,07,06,01,01,17.50
2015,07,06,01,02,17.50
2015,07,06,01,03,17.50
2015,07,06,01,04,17.40
2015,07,06,01,05,17.40
2015,07,06,01,06,17.40
2015,07,06,01,07,17.40
2015,07,06,01,08,17.40
2015,07,06,01,09,17.30
2015,07,06,01,10,17.30
2015,07,06,01,11,17.30
2015,07,06,01,12,17.30
2015,07,06,01,13,17.30
2015,07,06,01,14,17.30
2015,07,06,01,15,17.20
2015,07,06,01,16,17.20
2015,07,06,01,17,17.20
2015,07,06,01,18,17.20
2015,07,06,01,19,17.20
2015,07,06,01,20,17.20
2015,07,06,01,21,17.10
2015,07,06,01,22,17.10
2015,07,06,01,23,17.10
2015,07,06,01,24,17.10
2015,07,06,01,25,17.10
2015,07,06,01,26,17.10
2015,07,06,01,27,17.00
2015,07,06,01,28,17.00
2015,07,06,01,29,16.90
2015,07,06,01,30,16.90
2015,07,06,01,31,16.90
2015,07,06,01,32,16.90
2015,07,06,01,33,16.90
2015,07,06,01,34,16.90
2015,07,06,01,35,16.80
2015,07,06,01,36,16.80
2015,07,06,01,37,16.80
2015,07,06,01,38,16.80
2015,07,06,01,39,16.80
2015,07,06,01,40,16.80
2015,07,06,01,41,16.70
2015,07,06,01,42,16.70
2015,07,06,01,43,16.70
2015,07,06,01,44,16.70
2015,07,06,01,45,16.70
2015,07,06,01,46,16.70
2015,07,06,01,47,16.70
2015,07,06,01,48,16.60
2015,07,06,01,49,16.60
2015,07,06,01,50,16.60
2015,07,06,01,51,16.60
2015,07,06,01,52,16.50
2015,07,06,01,53,16.50
2015,07,06,01,54,16.50
2015,07,06,01,55,16.50
2015,07,06,01,56,16.40
2015,07,06,01,57,16.40
2015,07,06,01,58,16.40
2015,07,06,01,59,16.40
2015,07,06,02,00,16.40
2015,07,06,02,01,16.40
2015,07,06,02,02,16.40
2015,07,06,02,03,16.30
2015,07,06,02,04,16.30
2015,07,06,02,05,16.30
2015,07,06,02,06,16.30
2015,07,06,02,07,16.30
2015,07,06,02,08,16.30
2015,07,06,02,09,16.20
2015,07,06,02,10,16.20
2015,07,06,02,11,16.20
2015,07,06,02,12,16.20
2015,07,06,02,13,16.10
2015,07,06,02,14,16.10
2015,07,06,02,15,16.10
2015,07,06,02,16,16.10
2015,07,06,02,17,16.10
2015,07,06,02,18,16.10
2015,07,06,02,19,16.10
2015,07,06,02,20,16.10
2015,07,06,02,21,16.00
2015,07,06,02,22,16.00
2015,07,06,02,23,16.00
2015,07,06,02,24,16.00
2015,07,06,02,25,15.90
2015,07,06,02,26,15.90
2015,07,06,02,27,15.90
2015,07,06,02,28,15.90
2015,07,06,02,29,15.90
2015,07,06,02,30,15.80
2015,07,06,02,31,15.80
2015,07,06,02,32,15.80
2015,07,06,02,33,15.80
2015,07,06,02,34,15.80
2015,07,06,02,35,15.80
2015,07,06,02,36,15.70
2015,07,06,02,37,15.70
2015,07,06,02,38,15.70
2015,07,06,02,39,15.70
2015,07,06,02,40,15.70
2015,07,06,02,41,15.70
2015,07,06,02,42,15.70
2015,07,06,02,43,15.60
2015,07,06,02,44,15.60
2015,07,06,02,45,15.60
2015,07,06,02,46,15.60
2015,07,06,02,47,15.60
2015,07,06,02,48,15.60
2015,07,06,02,49,15.60
2015,07,06,02,50,15.50
2015,07,06,02,51,15.50
2015,07,06,02,52,15.50
2015,07,06,02,53,15.50
2015,07,06,02,54,15.40
2015,07,06,02,55,15.40
2015,07,06,02,56,15.40
2015,07,06,02,57,15.40
2015,07,06,02,58,15.40
2015,07,06,02,59,15.40
2015,07,06,03,00,15.40
2015,07,06,03,01,15.30
2015,07,06,03,02,15.30
2015,07,06,03,03,15.30
2015,07,06,03,04,15.30
2015,07,06,03,05,15.30
2015,07,06,03,06,15.30
2015,07,06,03,07,15.30
2015,07,06,03,08,15.30
2015,07,06,03,09,15.20
2015,07,06,03,10,15.20
2015,07,06,03,11,15.20
2015,07,06,03,12,15.20
2015,07,06,03,13,15.20
2015,07,06,03,14,15.20
2015,07,06,03,15,15.20
2015,07,06,03,16,15.20
2015,07,06,03,17,15.20
2015,07,06,03,18,15.20
2015,07,06,03,19,15.10
2015,07,06,03,20,15.10
2015,07,06,03,21,15.10
2015,07,06,03,22,15.10
2015,07,06,03,23,15.10
2015,07,06,03,24,15.10
2015,07,06,03,25,15.00
2015,07,06,03,26,15.00
2015,07,06,03,27,15.00
2015,07,06,03,28,15.00
2015,07,06,03,29,14.90
2015,07,06,03,30,14.90
2015,07,06,03,31,14.90
2015,07,06,03,32,14.90
2015,07,06,03,33,14.90
2015,07,06,03,34,14.90
2015,07,06,03,35,14.90
2015,07,06,03,36,14.80
2015,07,06,03,37,14.80
2015,07,06,03,38,14.80
2015,07,06,03,39,14.80
2015,07,06,03,40,14.80
2015,07,06,03,41,14.80
2015,07,06,03,42,14.80
2015,07,06,03,43,14.80
2015,07,06,03,44,14.80
2015,07,06,03,45,14.70
2015,07,06,03,46,14.70
2015,07,06,03,47,14.70
2015,07,06,03,48,14.70
2015,07,06,03,49,14.70
2015,07,06,03,50,14.70
2015,07,06,03,51,14.70
2015,07,06,03,52,14.60
2015,07,06,03,53,14.60
2015,07,06,03,54,14.60
2015,07,06,03,55,14.60
2015,07,06,03,56,14.60
2015,07,06,03,57,14.60
2015,07,06,03,58,14.60
2015,07,06,03,59,14.50
2015,07,06,04,00,14.50
2015,07,06,04,01,14.50
2015,07,06,04,02,14.50
2015,07,06,04,03,14.40
2015,07,06,04,04,14.40
2015,07,06,04,05,14.40
2015,07,06,04,06,14.40
2015,07,06,04,07,14.40
2015,07,06,04,08,14.40
2015,07,06,04,09,14.40
2015,07,06,04,10,14.40
2015,07,06,04,11,14.30
2015,07,06,04,12,14.30
2015,07,06,04,13,14.30
2015,07,06,04,14,14.30
2015,07,06,04,15,14.30
2015,07,06,04,16,14.30
2015,07,06,04,17,14.30
2015,07,06,04,18,14.30
2015,07,06,04,19,14.30
2015,07,06,04,20,14.20
2015,07,06,04,21,14.20
2015,07,06,04,22,14.20
2015,07,06,04,23,14.20
2015,07,06,04,24,14.20
2015,07,06,04,25,14.20
2015,07,06,04,26,14.20
2015,07,06,04,27,14.10
2015,07,06,04,28,14.10
2015,07,06,04,29,14.10
2015,07,06,04,30,14.10
2015,07,06,04,31,14.10
2015,07,06,04,32,14.10
2015,07,06,04,33,14.10
2015,07,06,04,34,14.10
2015,07,06,04,35,14.10
2015,07,06,04,36,14.10
2015,07,06,04,37,14.00
2015,07,06,04,38,14.00
2015,07,06,04,39,14.00
2015,07,06,04,40,14.00
2015,07,06,04,41,14.00
2015,07,06,04,42,13.90
2015,07,06,04,43,13.90
2015,07,06,04,44,13.90
2015,07,06,04,45,13.90
2015,07,06,04,46,13.90
2015,07,06,04,47,13.90
2015,07,06,04,48,13.90
2015,07,06,04,49,13.90
2015,07,06,04,50,13.80
2015,07,06,04,51,13.80
2015,07,06,04,52,13.80
2015,07,06,04,53,13.80
2015,07,06,04,54,13.80
2015,07,06,04,55,13.80
2015,07,06,04,56,13.80
2015,07,06,04,57,13.70
2015,07,06,04,58,13.70
2015,07,06,04,59,13.70
2015,07,06,05,00,13.70
2015,07,06,05,01,13.70
2015,07,06,05,02,13.70
2015,07,06,05,03,13.70
2015,07,06,05,04,13.70
2015,07,06,05,05,13.70
2015,07,06,05,06,13.70
2015,07,06,05,07,13.60
2015,07,06,05,08,13.60
2015,07,06,05,09,13.60
2015,07,06,05,10,13.60
2015,07,06,05,11,13.60
2015,07,06,05,12,13.60
2015,07,06,05,13,13.60
2015,07,06,05,14,13.60
2015,07,06,05,15,13.60
2015,07,06,05,16,13.50
2015,07,06,05,17,13.50
2015,07,06,05,18,13.50
2015,07,06,05,19,13.50
2015,07,06,05,20,13.50
2015,07,06,05,21,13.50
2015,07,06,05,22,13.50
2015,07,06,05,23,13.50
2015,07,06,05,24,13.40
2015,07,06,05,25,13.40
2015,07,06,05,26,13.40
2015,07,06,05,27,13.40
2015,07,06,05,28,13.40
2015,07,06,05,29,13.40
2015,07,06,05,30,13.40
2015,07,06,05,31,13.40
2015,07,06,05,32,13.40
2015,07,06,05,33,13.40
2015,07,06,05,34,13.30
2015,07,06,05,35,13.30
2015,07,06,05,36,13.30
2015,07,06,05,37,13.30
2015,07,06,05,38,13.30
2015,07,06,05,39,13.30
2015,07,06,05,40,13.30
2015,07,06,05,41,13.30
2015,07,06,05,42,13.30
2015,07,06,05,43,13.30
2015,07,06,05,44,13.30
2015,07,06,05,45,13.20
2015,07,06,05,46,13.20
2015,07,06,05,47,13.20
2015,07,06,05,48,13.20
2015,07,06,05,49,13.20
2015,07,06,05,50,13.20
2015,07,06,05,51,13.20
2015,07,06,05,52,13.20
2015,07,06,05,53,13.20
2015,07,06,05,54,13.20
2015,07,06,05,55,13.20
2015,07,06,05,56,13.20
2015,07,06,05,57,13.10
2015,07,06,05,58,13.10
2015,07,06,05,59,13.10
2015,07,06,06,00,13.10
2015,07,06,06,01,13.10
2015,07,06,06,02,13.10
2015,07,06,06,03,13.10
2015,07,06,06,04,13.10
2015,07,06,06,05,13.10
2015,07,06,06,06,13.10
2015,07,06,06,07,13.10
2015,07,06,06,08,13.10
2015,07,06,06,09,13.10
2015,07,06,06,10,13.10
2015,07,06,06,11,13.10
2015,07,06,06,12,13.10
2015,07,06,06,13,13.10
2015,07,06,06,14,13.10
2015,07,06,06,15,13.10
2015,07,06,06,16,13.10
2015,07,06,06,17,13.10
2015,07,06,06,18,13.10
2015,07,06,06,19,13.10
2015,07,06,06,20,13.10
2015,07,06,06,21,13.10
2015,07,06,06,22,13.10
2015,07,06,06,23,13.10
2015,07,06,06,24,13.10
2015,07,06,06,25,13.10
2015,07,06,06,26,13.10
2015,07,06,06,27,13.10
2015,07,06,06,28,13.10
2015,07,06,06,29,13.10
2015,07,06,06,30,13.10
2015,07,06,06,31,13.10
2015,07,06,06,32,13.10
2015,07,06,06,33,13.10
2015,07,06,06,34,13.10
2015,07,06,06,35,13.10
2015,07,06,06,36,13.10
2015,07,06,06,37,13.10
2015,07,06,06,38,13.10
2015,07,06,06,39,13.10
2015,07,06,06,40,13.10
2015,07,06,06,41,13.10
2015,07,06,06,42,13.10
2015,07,06,06,43,13.20
2015,07,06,06,44,13.20
2015,07,06,06,45,13.20
2015,07,06,06,46,13.20
2015,07,06,06,47,13.20
2015,07,06,06,48,13.20
2015,07,06,06,49,13.20
2015,07,06,06,50,13.30
2015,07,06,06,51,13.30
2015,07,06,06,52,13.30
2015,07,06,06,53,13.30
2015,07,06,06,54,13.30
2015,07,06,06,55,13.40
2015,07,06,06,56,13.40
2015,07,06,06,57,13.40
2015,07,06,06,58,13.50
2015,07,06,06,59,13.50
2015,07,06,07,00,13.60
2015,07,06,07,01,13.60
2015,07,06,07,02,13.70
2015,07,06,07,03,13.70
2015,07,06,07,04,13.80
2015,07,06,07,05,13.80
2015,07,06,07,06,13.90
2015,07,06,07,07,13.90
2015,07,06,07,08,14.00
2015,07,06,07,09,14.10
2015,07,06,07,10,14.10
2015,07,06,07,11,14.20
2015,07,06,07,12,14.20
2015,07,06,07,13,14.30
2015,07,06,07,14,14.40
2015,07,06,07,15,14.50
2015,07,06,07,16,14.60
2015,07,06,07,17,14.60
2015,07,06,07,18,14.70
2015,07,06,07,19,14.80
2015,07,06,07,20,14.80
2015,07,06,07,21,14.90
2015,07,06,07,22,15.00
2015,07,06,07,23,15.00
2015,07,06,07,24,15.10
2015,07,06,07,25,15.20
2015,07,06,07,26,15.30
2015,07,06,07,27,15.40
2015,07,06,07,28,15.40
2015,07,06,07,29,15.50
2015,07,06,07,30,15.60
2015,07,06,07,31,15.70
2015,07,06,07,32,15.70
2015,07,06,07,33,15.80
2015,07,06,07,34,15.90
2015,07,06,07,35,16.00
2015,07,06,07,36,16.00
2015,07,06,07,37,16.10
2015,07,06,07,38,16.10
2015,07,06,07,39,16.10
2015,07,06,07,40,16.10
2015,07,06,07,41,16.10
2015,07,06,07,42,16.10
2015,07,06,07,43,16.10
2015,07,06,07,44,16.10
2015,07,06,07,45,16.20
2015,07,06,07,46,16.20
2015,07,06,07,47,16.30
2015,07,06,07,48,16.30
2015,07,06,07,49,16.40
2015,07,06,07,50,16.50
2015,07,06,07,51,16.50
2015,07,06,07,52,16.60
2015,07,06,07,53,16.60
2015,07,06,07,54,16.70
2015,07,06,07,55,16.80
2015,07,06,07,56,16.90
2015,07,06,07,57,16.90
2015,07,06,07,58,17.00
2015,07,06,07,59,17.10
2015,07,06,08,00,17.20
2015,07,06,08,01,17.20
2015,07,06,08,02,17.30
2015,07,06,08,03,17.30
2015,07,06,08,04,17.40
2015,07,06,08,05,17.40
2015,07,06,08,06,17.50
2015,07,06,08,07,17.60
2015,07,06,08,08,17.70
2015,07,06,08,09,17.80
2015,07,06,08,10,17.80
2015,07,06,08,11,17.90
2015,07,06,08,12,18.00
2015,07,06,08,13,18.00
2015,07,06,08,14,18.10
2015,07,06,08,15,18.20
2015,07,06,08,16,18.20
2015,07,06,08,17,18.30
2015,07,06,08,18,18.40
2015,07,06,08,19,18.40
2015,07,06,08,20,18.50
2015,07,06,08,21,18.50
2015,07,06,08,22,18.60
2015,07,06,08,23,18.70
2015,07,06,08,24,18.70
2015,07,06,08,25,18.80
2015,07,06,08,26,18.90
2015,07,06,08,27,18.90
2015,07,06,08,28,19.00
2015,07,06,08,29,19.10
2015,07,06,08,30,19.20
2015,07,06,08,31,19.20
2015,07,06,08,32,19.20
2015,07,06,08,33,19.30
2015,07,06,08,34,19.30
2015,07,06,08,35,19.30
2015,07,06,08,36,19.30
2015,07,06,08,37,19.40
2015,07,06,08,38,19.40
2015,07,06,08,39,19.50
2015,07,06,08,40,19.60
2015,07,06,08,41,19.70
2015,07,06,08,42,19.80
2015,07,06,08,43,19.80
2015,07,06,08,44,19.90
2015,07,06,08,45,20.00
2015,07,06,08,46,20.00
2015,07,06,08,47,20.10
2015,07,06,08,48,20.20
2015,07,06,08,49,20.20
2015,07,06,08,50,20.30
2015,07,06,08,51,20.30
2015,07,06,08,52,20.40
2015,07,06,08,53,20.50
2015,07,06,08,54,20.60
2015,07,06,08,55,20.60
2015,07,06,08,56,20.80
2015,07,06,08,57,20.80
2015,07,06,08,58,20.90
2015,07,06,08,59,20.90
2015,07,06,09,00,21.00
2015,07,06,09,01,21.00
2015,07,06,09,02,21.00
2015,07,06,09,03,21.10
2015,07,06,09,04,21.10
2015,07,06,09,05,21.10
2015,07,06,09,06,21.20
2015,07,06,09,07,21.30
2015,07,06,09,08,21.40
2015,07,06,09,09,21.50
2015,07,06,09,10,21.50
2015,07,06,09,11,21.60
2015,07,06,09,12,21.60
2015,07,06,09,13,21.60
2015,07,06,09,14,21.50
2015,07,06,09,15,21.50
2015,07,06,09,16,21.50
2015,07,06,09,17,21.50
2015,07,06,09,18,21.60
2015,07,06,09,19,21.60
2015,07,06,09,20,21.60
2015,07,06,09,21,21.60
2015,07,06,09,22,21.60
2015,07,06,09,23,21.70
2015,07,06,09,24,21.70
2015,07,06,09,25,21.70
2015,07,06,09,26,21.70
2015,07,06,09,27,21.70
2015,07,06,09,28,21.70
2015,07,06,09,29,21.80
2015,07,06,09,30,21.80
2015,07,06,09,31,21.90
2015,07,06,09,32,21.90
2015,07,06,09,33,22.00
2015,07,06,09,34,22.10
2015,07,06,09,35,22.10
2015,07,06,09,36,22.20
2015,07,06,09,37,22.30
2015,07,06,09,38,22.30
2015,07,06,09,39,22.40
2015,07,06,09,40,22.40
2015,07,06,09,41,22.50
2015,07,06,09,42,22.60
2015,07,06,09,43,22.60
2015,07,06,09,44,22.70
2015,07,06,09,45,22.70
2015,07,06,09,46,22.70
2015,07,06,09,47,22.80
2015,07,06,09,48,22.80
2015,07,06,09,49,22.90
2015,07,06,09,50,23.00
2015,07,06,09,51,23.00
2015,07,06,09,52,23.10
2015,07,06,09,53,23.20
2015,07,06,09,54,23.20
2015,07,06,09,55,23.20
2015,07,06,09,56,23.30
2015,07,06,09,57,23.30
2015,07,06,09,58,23.40
2015,07,06,09,59,23.40
2015,07,06,10,00,23.50
2015,07,06,10,01,23.50
2015,07,06,10,02,23.60
2015,07,06,10,03,23.60
2015,07,06,10,04,23.60
2015,07,06,10,05,23.70
2015,07,06,10,06,23.70
2015,07,06,10,07,23.70
2015,07,06,10,08,23.80
2015,07,06,10,09,23.80
2015,07,06,10,10,23.80
2015,07,06,10,11,23.90
2015,07,06,10,12,24.00
2015,07,06,10,13,24.00
2015,07,06,10,14,24.10
2015,07,06,10,15,24.10
2015,07,06,10,16,24.10
2015,07,06,10,17,24.10
2015,07,06,10,18,24.10
2015,07,06,10,19,24.10
2015,07,06,10,20,24.20
2015,07,06,10,21,24.20
2015,07,06,10,22,24.20
2015,07,06,10,23,24.30
2015,07,06,10,24,24.40
2015,07,06,10,25,24.50
2015,07,06,10,26,24.60
2015,07,06,10,27,24.70
2015,07,06,10,28,24.70
2015,07,06,10,29,24.70
2015,07,06,10,30,24.70
2015,07,06,10,31,24.70
2015,07,06,10,32,24.70
2015,07,06,10,33,24.70
2015,07,06,10,34,24.80
2015,07,06,10,35,24.90
2015,07,06,10,36,25.00
2015,07,06,10,37,25.10
2015,07,06,10,38,25.30
2015,07,06,10,39,25.40
2015,07,06,10,40,25.60
2015,07,06,10,41,25.70
2015,07,06,10,42,25.70
2015,07,06,10,43,25.70
2015,07,06,10,44,25.60
2015,07,06,10,45,25.60
2015,07,06,10,46,25.60
2015,07,06,10,47,25.70
2015,07,06,10,48,25.70
2015,07,06,10,49,25.70
2015,07,06,10,50,25.70
2015,07,06,10,51,25.70
2015,07,06,10,52,25.80
2015,07,06,10,53,25.90
2015,07,06,10,54,25.90
2015,07,06,10,55,25.90
2015,07,06,10,56,25.90
2015,07,06,10,57,25.90
2015,07,06,10,58,26.00
2015,07,06,10,59,26.00
2015,07,06,11,00,26.10
2015,07,06,11,01,26.10
2015,07,06,11,02,26.20
2015,07,06,11,03,26.30
2015,07,06,11,04,26.30
2015,07,06,11,05,26.30
2015,07,06,11,06,26.40
2015,07,06,11,07,26.40
2015,07,06,11,08,26.50
2015,07,06,11,09,26.60
2015,07,06,11,10,26.60
2015,07,06,11,11,26.70
2015,07,06,11,12,26.70
2015,07,06,11,13,26.80
2015,07,06,11,14,26.90
2015,07,06,11,15,27.00
2015,07,06,11,16,27.10
2015,07,06,11,17,27.20
2015,07,06,11,18,27.30
2015,07,06,11,19,27.30
2015,07,06,11,20,27.30
2015,07,06,11,21,27.30
2015,07,06,11,22,27.30
2015,07,06,11,23,27.30
2015,07,06,11,24,27.30
2015,07,06,11,25,27.20
2015,07,06,11,26,27.20
2015,07,06,11,27,27.20
2015,07,06,11,28,27.20
2015,07,06,11,29,27.10
2015,07,06,11,30,27.10
2015,07,06,11,31,27.10
2015,07,06,11,32,27.10
2015,07,06,11,33,27.20
2015,07,06,11,34,27.20
2015,07,06,11,35,27.20
2015,07,06,11,36,27.20
2015,07,06,11,37,27.20
2015,07,06,11,38,27.20
2015,07,06,11,39,27.30
2015,07,06,11,40,27.30
2015,07,06,11,41,27.30
2015,07,06,11,42,27.30
2015,07,06,11,43,27.30
2015,07,06,11,44,27.30
2015,07,06,11,45,27.40
2015,07,06,11,46,27.40
2015,07,06,11,47,27.40
2015,07,06,11,48,27.40
2015,07,06,11,49,27.40
2015,07,06,11,50,27.40
2015,07,06,11,51,27.40
2015,07,06,11,52,27.40
2015,07,06,11,53,27.40
2015,07,06,11,54,27.40
2015,07,06,11,55,27.40
2015,07,06,11,56,27.40
2015,07,06,11,57,27.50
2015,07,06,11,58,27.50
2015,07,06,11,59,27.50
2015,07,06,12,00,27.40
2015,07,06,12,01,27.40
2015,07,06,12,02,27.40
2015,07,06,12,03,27.40
2015,07,06,12,04,27.30
2015,07,06,12,05,27.40
2015,07,06,12,06,27.40
2015,07,06,12,07,27.40
2015,07,06,12,08,27.40
2015,07,06,12,09,27.40
2015,07,06,12,10,27.40
2015,07,06,12,11,27.50
2015,07,06,12,12,27.60
2015,07,06,12,13,27.60
2015,07,06,12,14,27.70
2015,07,06,12,15,27.70
2015,07,06,12,16,27.80
2015,07,06,12,17,27.80
2015,07,06,12,18,27.80
2015,07,06,12,19,27.90
2015,07,06,12,20,28.00
2015,07,06,12,21,28.10
2015,07,06,12,22,28.20
2015,07,06,12,23,28.20
2015,07,06,12,24,28.20
2015,07,06,12,25,28.20
2015,07,06,12,26,28.30
2015,07,06,12,27,28.40
2015,07,06,12,28,28.50
2015,07,06,12,29,28.50
2015,07,06,12,30,28.60
2015,07,06,12,31,28.60
2015,07,06,12,32,28.60
2015,07,06,12,33,28.60
2015,07,06,12,34,28.70
2015,07,06,12,35,28.70
2015,07,06,12,36,28.70
2015,07,06,12,37,28.70
2015,07,06,12,38,28.70
2015,07,06,12,39,28.70
2015,07,06,12,40,28.70
2015,07,06,12,41,28.80
2015,07,06,12,42,28.80
2015,07,06,12,43,28.80
2015,07,06,12,44,28.80
2015,07,06,12,45,28.80
2015,07,06,12,46,28.80
2015,07,06,12,47,28.90
2015,07,06,12,48,28.90
2015,07,06,12,49,28.90
2015,07,06,12,50,28.90
2015,07,06,12,51,28.90
2015,07,06,12,52,28.90
2015,07,06,12,53,28.90
2015,07,06,12,54,28.90
2015,07,06,12,55,28.90
2015,07,06,12,56,28.90
2015,07,06,12,57,28.90
2015,07,06,12,58,28.80
2015,07,06,12,59,28.80
2015,07,06,13,00,28.70
2015,07,06,13,01,28.80
2015,07,06,13,02,28.80
2015,07,06,13,03,28.80
2015,07,06,13,04,28.80
2015,07,06,13,05,28.80
2015,07,06,13,06,28.90
2015,07,06,13,07,28.90
2015,07,06,13,08,28.90
2015,07,06,13,09,29.00
2015,07,06,13,10,29.00
2015,07,06,13,11,29.10
2015,07,06,13,12,29.20
2015,07,06,13,13,29.20
2015,07,06,13,14,29.20
2015,07,06,13,15,29.20
2015,07,06,13,16,29.30
2015,07,06,13,17,29.30
2015,07,06,13,18,29.40
2015,07,06,13,19,29.40
2015,07,06,13,20,29.40
2015,07,06,13,21,29.40
2015,07,06,13,22,29.40
2015,07,06,13,23,29.40
2015,07,06,13,24,29.50
2015,07,06,13,25,29.50
2015,07,06,13,26,29.50
2015,07,06,13,27,29.40
2015,07,06,13,28,29.40
2015,07,06,13,29,29.40
2015,07,06,13,30,29.50
2015,07,06,13,31,29.50
2015,07,06,13,32,29.50
2015,07,06,13,33,29.60
2015,07,06,13,34,29.60
2015,07,06,13,35,29.60
2015,07,06,13,36,29.60
2015,07,06,13,37,29.60
2015,07,06,13,38,29.60
2015,07,06,13,39,29.70
2015,07,06,13,40,29.70
2015,07,06,13,41,29.70
2015,07,06,13,42,29.70
2015,07,06,13,43,29.70
2015,07,06,13,44,29.70
2015,07,06,13,45,29.70
2015,07,06,13,46,29.70
2015,07,06,13,47,29.60
2015,07,06,13,48,29.60
2015,07,06,13,49,29.60
2015,07,06,13,50,29.50
2015,07,06,13,51,29.40
2015,07,06,13,52,29.50
2015,07,06,13,53,29.50
2015,07,06,13,54,29.50
2015,07,06,13,55,29.50
2015,07,06,13,56,29.50
2015,07,06,13,57,29.50
2015,07,06,13,58,29.40
2015,07,06,13,59,29.40
2015,07,06,14,00,29.40
2015,07,06,14,01,29.40
2015,07,06,14,02,29.30
2015,07,06,14,03,29.30
2015,07,06,14,04,29.30
2015,07,06,14,05,29.30
2015,07,06,14,06,29.30
2015,07,06,14,07,29.30
2015,07,06,14,08,29.30
2015,07,06,14,09,29.30
2015,07,06,14,10,29.40
2015,07,06,14,11,29.40
2015,07,06,14,12,29.40
2015,07,06,14,13,29.40
2015,07,06,14,14,29.30
2015,07,06,14,15,29.40
2015,07,06,14,16,29.40
2015,07,06,14,17,29.40
2015,07,06,14,18,29.40
2015,07,06,14,19,29.40
2015,07,06,14,20,29.40
2015,07,06,14,21,29.30
2015,07,06,14,22,29.30
2015,07,06,14,23,29.30
2015,07,06,14,24,29.40
2015,07,06,14,25,29.40
2015,07,06,14,26,29.40
2015,07,06,14,27,29.50
2015,07,06,14,28,29.50
2015,07,06,14,29,29.50
2015,07,06,14,30,29.40
2015,07,06,14,31,29.40
2015,07,06,14,32,29.40
2015,07,06,14,33,29.40
2015,07,06,14,34,29.40
2015,07,06,14,35,29.40
2015,07,06,14,36,29.40
2015,07,06,14,37,29.40
2015,07,06,14,38,29.40
2015,07,06,14,39,29.40
2015,07,06,14,40,29.40
2015,07,06,14,41,29.40
2015,07,06,14,42,29.40
2015,07,06,14,43,29.40
2015,07,06,14,44,29.40
2015,07,06,14,45,29.40
2015,07,06,14,46,29.40
2015,07,06,14,47,29.40
2015,07,06,14,48,29.50
2015,07,06,14,49,29.50
2015,07,06,14,50,29.50
2015,07,06,14,51,29.60
2015,07,06,14,52,29.60
2015,07,06,14,53,29.70
2015,07,06,14,54,29.70
2015,07,06,14,55,29.80
2015,07,06,14,56,29.80
2015,07,06,14,57,29.80
2015,07,06,14,58,29.70
2015,07,06,14,59,29.70
2015,07,06,15,00,29.60
2015,07,06,15,01,29.60
2015,07,06,15,02,29.60
2015,07,06,15,03,29.60
2015,07,06,15,04,29.50
2015,07,06,15,05,29.50
2015,07,06,15,06,29.50
2015,07,06,15,07,29.50
2015,07,06,15,08,29.40
2015,07,06,15,09,29.40
2015,07,06,15,10,29.40
2015,07,06,15,11,29.50
2015,07,06,15,12,29.40
2015,07,06,15,13,29.40
2015,07,06,15,14,29.40
2015,07,06,15,15,29.40
2015,07,06,15,16,29.40
2015,07,06,15,17,29.30
2015,07,06,15,18,29.30
2015,07,06,15,19,29.30
2015,07,06,15,20,29.30
2015,07,06,15,21,29.20
2015,07,06,15,22,29.20
2015,07,06,15,23,29.20
2015,07,06,15,24,29.10
2015,07,06,15,25,29.10
2015,07,06,15,26,29.10
2015,07,06,15,27,29.10
2015,07,06,15,28,29.20
2015,07,06,15,29,29.20
2015,07,06,15,30,29.20
2015,07,06,15,31,29.20
2015,07,06,15,32,29.20
2015,07,06,15,33,29.10
2015,07,06,15,34,29.10
2015,07,06,15,35,29.10
2015,07,06,15,36,29.00
2015,07,06,15,37,28.90
2015,07,06,15,38,28.90
2015,07,06,15,39,29.00
2015,07,06,15,40,29.00
2015,07,06,15,41,29.10
2015,07,06,15,42,29.10
2015,07,06,15,43,29.20
2015,07,06,15,44,29.20
2015,07,06,15,45,29.20
2015,07,06,15,46,29.10
2015,07,06,15,47,29.10
2015,07,06,15,48,29.10
2015,07,06,15,49,29.00
2015,07,06,15,50,29.00
2015,07,06,15,51,29.00
2015,07,06,15,52,29.10
2015,07,06,15,53,29.00
2015,07,06,15,54,29.00
2015,07,06,15,55,29.00
2015,07,06,15,56,29.00
2015,07,06,15,57,29.00
2015,07,06,15,58,29.00
2015,07,06,15,59,29.00
2015,07,06,16,00,29.00
2015,07,06,16,01,29.00
2015,07,06,16,02,28.90
2015,07,06,16,03,28.90
2015,07,06,16,04,28.90
2015,07,06,16,05,28.90
2015,07,06,16,06,28.90
2015,07,06,16,07,28.90
2015,07,06,16,08,28.90
2015,07,06,16,09,28.90
2015,07,06,16,10,28.90
2015,07,06,16,11,28.90
2015,07,06,16,12,28.90
2015,07,06,16,13,29.00
2015,07,06,16,14,28.90
2015,07,06,16,15,28.90
2015,07,06,16,16,28.90
2015,07,06,16,17,28.90
2015,07,06,16,18,28.90
2015,07,06,16,19,28.90
2015,07,06,16,20,28.90
2015,07,06,16,21,28.80
2015,07,06,16,22,28.80
2015,07,06,16,23,28.80
2015,07,06,16,24,28.80
2015,07,06,16,25,28.70
2015,07,06,16,26,28.70
2015,07,06,16,27,28.60
2015,07,06,16,28,28.60
2015,07,06,16,29,28.50
2015,07,06,16,30,28.50
2015,07,06,16,31,28.50
2015,07,06,16,32,28.40
2015,07,06,16,33,28.40
2015,07,06,16,34,28.40
2015,07,06,16,35,28.40
2015,07,06,16,36,28.40
2015,07,06,16,37,28.50
2015,07,06,16,38,28.50
2015,07,06,16,39,28.50
2015,07,06,16,40,28.40
2015,07,06,16,41,28.40
2015,07,06,16,42,28.30
2015,07,06,16,43,28.30
2015,07,06,16,44,28.20
2015,07,06,16,45,28.20
2015,07,06,16,46,28.10
2015,07,06,16,47,28.00
2015,07,06,16,48,28.00
2015,07,06,16,49,27.90
2015,07,06,16,50,27.90
2015,07,06,16,51,27.90
2015,07,06,16,52,28.00
2015,07,06,16,53,28.00
2015,07,06,16,54,28.10
2015,07,06,16,55,28.10
2015,07,06,16,56,28.00
2015,07,06,16,57,28.10
2015,07,06,16,58,28.10
2015,07,06,16,59,28.10
2015,07,06,17,00,28.00
2015,07,06,17,01,28.00
2015,07,06,17,02,28.00
2015,07,06,17,03,28.00
2015,07,06,17,04,28.00
2015,07,06,17,05,28.00
2015,07,06,17,06,28.00
2015,07,06,17,07,28.00
2015,07,06,17,08,27.90
2015,07,06,17,09,27.90
2015,07,06,17,10,27.90
2015,07,06,17,11,27.90
2015,07,06,17,12,27.90
2015,07,06,17,13,27.90
2015,07,06,17,14,27.90
2015,07,06,17,15,27.90
2015,07,06,17,16,27.90
2015,07,06,17,17,27.90
2015,07,06,17,18,27.90
2015,07,06,17,19,28.00